{"data":{"norad_id":59367,"intl_designator":"2024-060V","name":"STARLINK-31428","alt_names":[],"object_type":"PAYLOAD","status":"ACTIVE","operator":null,"country":"US","launch_date":"2024-03-31","launch_site_code":"AFETR","launch_vehicle":null,"mission":null,"orbit_class":"UNKNOWN","rcs_meters":null,"size_class":null,"mass_kg":null,"dimensions":null,"purposes":["comms"],"wikipedia_slug":null,"has_3d_model":false,"image_url":null,"decayed_at":null,"tle_current":{"epoch":"2026-05-25T04:23:47.133024Z","epoch_age_seconds":55096,"freshness":"FRESH","line1":"1 59367U 24060V   26145.18318441  .00004544  00000+0  17472-3 0  9990","line2":"2 59367  43.0050 187.6822 0002244 287.8623  72.1984 15.27547104121760","mean_motion":15.27547104,"eccentricity":0.0002244,"inclination_deg":43.005,"raan_deg":187.6822,"arg_perigee_deg":287.8623,"mean_anomaly_deg":72.1984,"bstar":0.00017472,"rev_number":12176,"period_min":94.268778764939,"perigee_km":481.60792800135,"apogee_km":484.68727252995,"semimajor_km":6861.2846002656,"source":"CELESTRAK","updated_at":"2026-05-25T13:38:18.912300Z"}}}